Weather History for CYZP - November, 2013

Change the Weather History Date:

Wednesday, November 27, 2013

  Actual Average Record
Temperature  
Mean Temperature 48 °F -  
Max Temperature 50 °F 44 °F 53 °F (2002)
Min Temperature 45 °F 37 °F 19 °F (2006)
Degree Days  
Heating Degree Days 18    
Moisture  
Dew Point 48 °F    
Average Humidity 95    
Maximum Humidity 100    
Minimum Humidity 85    
Precipitation  
Precipitation 0.02 in 0.44 in - ()
Sea Level Pressure  
Sea Level Pressure 29.73 in    
Wind  
Wind Speed 25 mph ()    
Max Wind Speed 37 mph    
Max Gust Speed 47 mph    
Visibility 6.2 miles    
Events Rain    
Averages and records for this station are not official NWS values.
T = Trace of Precipitation, MM = Missing Value Source: Averaged Metar Reports

Daily Weather History Graph

Daily Weather History Graph

Search for Another Location

Airport or City:

Trip Planner

Search our weather history database for the weather conditions in past years. The results will help you decide how hot, cold, wet, or windy it might be!

Date:

Astronomy

Nov. 27, 2013 Rise Set
Actual Time 8:33 AM PST 4:36 PM PST
Civil Twilight 7:52 AM PST 5:16 PM PST
Nautical Twilight 7:08 AM PST 6:00 PM PST
Astronomical Twilight 6:27 AM PST 6:42 PM PST
Moon 1:56 AM PST (11/27) 1:58 PM PST (11/27)
Length of Visible Light 9h 24m
Length of Day
8h 02m
Waning Crescent, 30% of the Moon is Illuminated
Nov 27
Waning Crescent
Dec 2
New
Dec 9
First Quarter
Dec 17
Full
Dec 25
Last Quarter

Hourly Weather History & Observations

Time (PST) Temp. Windchill Dew Point Humidity Pressure Visibility Wind Dir Wind Speed Gust Speed Precip Events Conditions
12:00 AM 48.2 °F - 48.2 °F 100% 29.82 in 4.0 mi SE 26.5 mph 34.5 mph N/A   Overcast
12:06 AM 48.2 °F - 48.2 °F 100% 29.83 in 4.0 mi SE 26.5 mph 35.7 mph N/A   Overcast
1:00 AM 49 °F - 47 °F 92% 29.82 in - SE 21.9 mph - -  
1:00 AM 48.2 °F - 48.2 °F 100% 29.83 in 3.0 mi SE 25.3 mph 35.7 mph N/A   Overcast
2:00 AM 48.2 °F - 48.2 °F 100% 29.81 in 5.0 mi SE 26.5 mph 35.7 mph N/A   Overcast
2:09 AM 48.2 °F - 48.2 °F 100% 29.81 in 5.0 mi SE 27.6 mph 34.5 mph N/A Rain Light Rain
2:36 AM 48.2 °F - 48.2 °F 100% 29.81 in 6.0 mi SE 26.5 mph 36.8 mph N/A Rain Light Rain
2:42 AM 48.2 °F - 48.2 °F 100% 29.80 in 6.0 mi SE 29.9 mph - N/A   Overcast
2:43 AM 48.2 °F - 48.2 °F 100% 29.80 in 6.0 mi SE 29.9 mph - N/A Rain Light Rain
3:00 AM 48.2 °F - 48.2 °F 100% 29.80 in 6.0 mi SE 28.8 mph 35.7 mph N/A Rain Light Rain
3:27 AM 48.2 °F - 48.2 °F 100% 29.80 in 5.0 mi SE 26.5 mph 32.2 mph N/A Rain Light Rain
3:41 AM 48.2 °F - 48.2 °F 100% 29.79 in 5.0 mi SE 25.3 mph 32.2 mph N/A Rain Light Rain
3:42 AM 48.2 °F - 48.2 °F 100% 29.79 in 5.0 mi SE 27.6 mph 33.4 mph N/A   Overcast
3:47 AM 48.2 °F - 48.2 °F 100% 29.79 in 5.0 mi SE 26.5 mph 33.4 mph N/A Rain Light Rain
4:00 AM 49 °F - 47 °F 92% 29.78 in - SE 24.2 mph - -  
4:00 AM 48.2 °F - 48.2 °F 100% 29.79 in 4.0 mi SE 28.8 mph 34.5 mph N/A Rain Light Rain
5:00 AM 48.2 °F - 48.2 °F 100% 29.78 in 5.0 mi SE 32.2 mph 41.4 mph N/A Rain Light Rain
5:02 AM 48.2 °F - 46.4 °F 93% 29.78 in 6.0 mi SE 31.1 mph 41.4 mph N/A Rain Light Rain
5:24 AM 48.2 °F - 48.2 °F 100% 29.77 in 5.0 mi SE 32.2 mph 41.4 mph N/A Rain Light Rain
6:00 AM 48.2 °F - 48.2 °F 100% 29.76 in 5.0 mi SE 31.1 mph 41.4 mph N/A Rain Light Rain
6:12 AM 48.2 °F - 48.2 °F 100% 29.75 in 6.0 mi SE 34.5 mph 41.4 mph N/A Rain Light Rain
6:21 AM 48.2 °F - 48.2 °F 100% 29.75 in 5.0 mi SE 34.5 mph 42.6 mph N/A Rain Light Rain
6:51 AM 50.0 °F - 48.2 °F 94% 29.75 in 5.0 mi SE 34.5 mph 43.7 mph N/A   Overcast
6:56 AM 50.0 °F - 48.2 °F 94% 29.75 in 5.0 mi SE 34.5 mph 43.7 mph N/A Rain Light Rain
7:00 AM 49 °F - 47 °F 92% 29.74 in - SE 26.5 mph - -  
7:00 AM 50.0 °F - 48.2 °F 94% 29.75 in 5.0 mi SE 33.4 mph 43.7 mph N/A Rain Light Rain
7:06 AM 50.0 °F - 48.2 °F 94% 29.75 in 5.0 mi SE 32.2 mph 41.4 mph N/A   Overcast
7:26 AM 50.0 °F - 48.2 °F 94% 29.75 in 5.0 mi SE 34.5 mph 43.7 mph N/A Rain Light Rain
7:36 AM 50.0 °F - 48.2 °F 94% 29.75 in 5.0 mi SE 35.7 mph 43.7 mph N/A   Overcast
7:41 AM 50.0 °F - 48.2 °F 94% 29.75 in 5.0 mi SE 34.5 mph 42.6 mph N/A Rain Light Rain
8:00 AM 48.2 °F - 46.4 °F 93% 29.75 in 5.0 mi SE 31.1 mph 42.6 mph N/A Rain Light Rain
8:10 AM 48.2 °F - 48.2 °F 100% 29.75 in 5.0 mi SE 33.4 mph 41.4 mph N/A   Overcast
8:12 AM 48.2 °F - 48.2 °F 100% 29.75 in 5.0 mi SE 34.5 mph 41.4 mph N/A Rain Light Rain
8:48 AM 48.2 °F - 48.2 °F 100% 29.74 in 5.0 mi SE 33.4 mph 44.9 mph N/A   Overcast
8:49 AM 48.2 °F - 48.2 °F 100% 29.74 in 5.0 mi SE 35.7 mph 41.4 mph N/A Rain Light Rain
9:00 AM 48.2 °F - 48.2 °F 100% 29.74 in 5.0 mi SE 29.9 mph 40.3 mph N/A Rain Light Rain
9:48 AM 50.0 °F - 48.2 °F 94% 29.73 in 5.0 mi SE 36.8 mph 43.7 mph N/A   Overcast
9:58 AM 50.0 °F - 48.2 °F 94% 29.73 in 4.0 mi SE 34.5 mph 43.7 mph N/A Rain Light Rain
10:00 AM 49 °F - 48 °F 93% 29.73 in - SE 27.6 mph - -  
10:00 AM 50.0 °F - 48.2 °F 94% 29.73 in 5.0 mi SE 33.4 mph 47.2 mph N/A Rain Light Rain
10:13 AM 50.0 °F - 48.2 °F 94% 29.73 in 5.0 mi SE 34.5 mph 41.4 mph N/A   Overcast
10:40 AM 50.0 °F - 48.2 °F 94% 29.73 in 6.0 mi SE 33.4 mph 40.3 mph N/A   Overcast
10:54 AM 50.0 °F - 48.2 °F 94% 29.73 in 6.0 mi SE 31.1 mph 42.6 mph N/A Rain Light Rain
11:00 AM 50.0 °F - 48.2 °F 94% 29.73 in 7.0 mi SE 34.5 mph 41.4 mph N/A Rain Light Rain
11:45 AM 50.0 °F - 48.2 °F 94% 29.73 in 8.0 mi SE 31.1 mph 39.1 mph N/A   Overcast
12:00 PM 50.0 °F - 48.2 °F 94% 29.73 in 8.0 mi SE 29.9 mph 39.1 mph N/A   Overcast
1:00 PM 49 °F - 48 °F 94% 29.70 in - SSE 20.7 mph - -  
1:00 PM 50.0 °F - 48.2 °F 94% 29.71 in 8.0 mi SE 28.8 mph 34.5 mph N/A   Overcast
1:17 PM 50.0 °F - 48.2 °F 94% 29.70 in 8.0 mi SE 27.6 mph 33.4 mph N/A Rain Light Rain
1:36 PM 50.0 °F - 48.2 °F 94% 29.70 in 8.0 mi SE 27.6 mph 33.4 mph N/A   Overcast
1:52 PM 50.0 °F - 48.2 °F 94% 29.69 in 7.0 mi SE 26.5 mph 33.4 mph N/A Rain Light Rain
2:00 PM 50.0 °F - 48.2 °F 94% 29.69 in 7.0 mi SE 26.5 mph - N/A Rain Light Rain
2:03 PM 50.0 °F - 48.2 °F 94% 29.69 in 7.0 mi SSE 25.3 mph 31.1 mph N/A   Overcast
3:00 PM 50.0 °F - 48.2 °F 94% 29.67 in 7.0 mi SE 27.6 mph 35.7 mph N/A   Overcast
4:00 PM 49 °F - 48 °F 96% 29.66 in - SSE 20.7 mph - -  
4:00 PM 50.0 °F - 48.2 °F 94% 29.66 in 7.0 mi SE 27.6 mph 34.5 mph N/A   Overcast
5:00 PM 50.0 °F - 48.2 °F 94% 29.66 in 9.0 mi SE 23.0 mph 28.8 mph N/A   Overcast
5:36 PM 50.0 °F - 48.2 °F 94% 29.66 in 7.0 mi SSE 19.6 mph 25.3 mph N/A   Overcast
5:45 PM 50.0 °F - 48.2 °F 94% 29.66 in 7.0 mi SSE 19.6 mph - N/A Rain Light Rain
6:00 PM 50.0 °F - 48.2 °F 94% 29.66 in 7.0 mi SSE 20.7 mph - N/A Rain Light Rain
6:07 PM 50.0 °F - 48.2 °F 94% 29.66 in 5.0 mi SSE 23.0 mph - N/A Rain Light Rain
6:09 PM 50.0 °F - 48.2 °F 94% 29.66 in 5.0 mi SSE 23.0 mph - N/A   Overcast
6:16 PM 50.0 °F - 48.2 °F 94% 29.66 in 6.0 mi SSE 20.7 mph 27.6 mph N/A   Overcast
6:19 PM 50.0 °F - 48.2 °F 94% 29.66 in 7.0 mi SSE 20.7 mph 26.5 mph N/A Rain Light Rain
6:47 PM - - - N/A% - - North - - N/A   Unknown
6:57 PM 50.0 °F - 48.2 °F 94% 29.65 in 8.0 mi SE 17.3 mph - N/A Rain Light Rain
7:00 PM 49 °F - 48 °F 94% 29.65 in - SE 11.5 mph - -  
7:00 PM 50.0 °F - 48.2 °F 94% 29.65 in 7.0 mi SE 17.3 mph - N/A Rain Light Rain
7:19 PM 48.2 °F - 48.2 °F 100% 29.66 in 8.0 mi SSE 13.8 mph - N/A   Unknown
8:00 PM 48.2 °F - 48.2 °F 100% 29.66 in 9.0 mi North - - N/A   Unknown
8:45 PM 50.0 °F - 48.2 °F 94% 29.67 in 9.0 mi WSW 12.7 mph - N/A   Mostly Cloudy
9:00 PM 50.0 °F - 46.4 °F 87% 29.68 in 9.0 mi SW 17.3 mph 23.0 mph N/A   Mostly Cloudy
9:28 PM 50.0 °F - 46.4 °F 87% 29.69 in 9.0 mi WSW 19.6 mph 25.3 mph N/A   Mostly Cloudy
10:00 PM 49 °F - 46 °F 85% 29.71 in - WSW 2.3 mph - -  
10:00 PM 48.2 °F - 46.4 °F 93% 29.72 in 9.0 mi WSW 13.8 mph - N/A   Unknown
10:22 PM 48.2 °F - 44.6 °F 87% 29.73 in 9.0 mi WSW 15.0 mph - N/A   Mostly Cloudy
11:00 PM 48.2 °F - 44.6 °F 87% 29.77 in 9.0 mi WSW 17.3 mph - N/A   Unknown
11:15 PM 48.2 °F - 44.6 °F 87% 29.77 in 9.0 mi WSW 15.0 mph 21.9 mph N/A   Overcast
11:42 PM 46.4 °F 40.7 °F 44.6 °F 93% 29.78 in 9.0 mi West 12.7 mph - N/A   Mostly Cloudy